Weather Roundup
Issued by NWS Springfield, MO

Home | Current Version | Previous Version | Text Only | Print | Product List | Glossary On
Versions: 1 2 3 4 5 6 7 8 9 10 11 12 13 14 15 16 17 18 19 20 21 22 23 24 25 26 27 28 29 30 31 32 33 34 35 36 37 38 39 40 41 42 43 44 45 46 47 48 49 50
000
NZUS99 KSGF 211107
HRRSGF

HOURLY WEATHER
NATIONAL WEATHER SERVICE SPRINGFIELD MO
600 AM CDT THU SEP 21 2017

......SGF CWA......

CITY           SKY/WX    TMP DP  RH WIND       PRES   REMARKS
SPRINGFIELD    CLEAR     72  70  93 SE12      29.96S
JOPLIN         CLEAR     74  72  93 S7        29.93R
WEST PLAINS    CLEAR     70  68  93 CALM      30.04R FOG
ROLLA          CLEAR     72  70  93 S8        30.00S
OSAGE BEACH    CLEAR     72  70  93 SE6       29.97S

......SURROUNDING SGF CWA......

CITY           SKY/WX    TMP DP  RH WIND       PRES   REMARKS
CHANUTE        CLEAR     75  70  84 SE9       29.89R
COFFEYVILLE    CLEAR     74  70  87 SE10      29.88S
EMPORIA        CLEAR     74  70  87 S13       29.85F
GROVE OK       CLOUDY    75  72  88 S3        29.93S
ROGERS AR      CLEAR     72  70  93 SE9       29.98R
SILOAM SPRINGS CLEAR     73  70  90 S5        29.97R
HARRISON AR    CLEAR     70  70 100 S5        30.01R
NEAR YELLVILLE CLEAR     71  69  93 CALM      29.99R

......KANSAS AND MISSOURI......

CITY           SKY/WX    TMP DP  RH WIND       PRES   REMARKS
KANSAS CTY INT PTCLDY    77  72  84 S10       29.88R
DOWNTOWN KC    CLEAR     79  72  79 S9        29.87S
COLUMBIA       CLEAR     72  70  93 S7        29.96R
SEDALIA        CLOUDY    75  72  90 S7        29.95R
ST JOSEPH      CLEAR     69  69 100 CALM      29.86R
ST LOUIS       CLOUDY    76  70  82 S5        29.99S
KIRKSVILLE     CLOUDY    74  70  87 S5        29.95R
WICHITA        PTCLDY    74  72  93 SE8       29.83S
TOPEKA         CLEAR     74  73  97 E5        29.85R
OLATHE         CLEAR     73  72  96 S7        29.89S

......TENNESSEE......

CITY           SKY/WX    TMP DP  RH WIND       PRES   REMARKS
MEMPHIS        CLEAR     73  69  87 CALM      30.04R
NASHVILLE      CLEAR     70  68  93 CALM      30.08R

......ARKANSAS.......

CITY           SKY/WX    TMP DP  RH WIND       PRES   REMARKS
FAYETTEVILLE   CLEAR     68  68 100 CALM      29.98R FOG
FT SMITH       CLEAR     74  72  93 CALM      29.95R
LITTLE ROCK    CLEAR     72  72 100 SE3       29.99R FOG

......OKLAHOMA.......

CITY           SKY/WX    TMP DP  RH WIND       PRES   REMARKS
TULSA          PTCLDY    79  71  76 S12       29.87S
PONCA CITY     MOCLDY    78  69  73 S14       29.83S
MCALESTER      CLEAR     78  73  84 S6        29.93R
OKLAHOMA CITY  CLOUDY    77  69  76 S14       29.86S

......IOWA............

CITY           SKY/WX    TMP DP  RH WIND       PRES   REMARKS
DES MOINES     TSTM      68  65  90 E7        29.91R
QUAD CITIES    RAIN      69  66  90 S5        29.99R

......ILLINOIS........

CITY           SKY/WX    TMP DP  RH WIND       PRES   REMARKS
QUINCY         CLOUDY    76  70  82 E7        29.97R
CHICAGO        CLOUDY    74  67  78 S6        29.96S




USA.gov is the U.S. government's official web portal to all federal, state and local government web resources and services.